La Crosse, WI

9:02 PM CST on December 14, 2019 (GMT -0600)
La Crosse Municipal

Weather History for KLSE - November, 2019

Change the Weather History Date:

Tuesday, November 12, 2019

  Actual Average Record
Temperature  
Mean Temperature 14 °F 38 °F  
Max Temperature 21 °F 46 °F 67 °F (1902)
Min Temperature 6 °F 30 °F 5 °F (1986)
Degree Days  
Heating Degree Days 52 27  
Month to date heating degree days 431 288  
Since 1 July heating degree days 944 916  
Cooling Degree Days 0 0  
Month to date cooling degree days 0 0  
Year to date cooling degree days 950 782  
Moisture  
Dew Point -1 °F    
Average Humidity 51    
Maximum Humidity 69    
Minimum Humidity 38    
Precipitation  
Precipitation 0.00 in 0.07 in 0.82 in (1912)
Month to date precipitation 0.44 0.80  
Year to date precipitation 40.94 30.49  
Snow  
Snow 0.00 in 0.00 in 3.00 in (1919)
Month to date snowfall 4.5 0.7  
Since 1 July snowfall 4.5 0.9  
Snow Depth T in    
Sea Level Pressure  
Sea Level Pressure 30.50 in    
Wind  
Wind Speed 10 mph ()    
Max Wind Speed 25 mph    
Max Gust Speed 34 mph    
Visibility 10.0 miles    
Events      
T = Trace of Precipitation, MM = Missing Value Source: Averaged Metar Reports

Daily Weather History Graph

Daily Weather History Graph

Search for Another Location

Airport or City:

Astronomy

Nov. 12, 2019 Rise Set
Actual Time 6:55 AM CST 4:42 PM CST
Civil Twilight 6:24 AM CST 5:13 PM CST
Nautical Twilight 5:49 AM CST 5:47 PM CST
Astronomical Twilight 5:16 AM CST 6:21 PM CST
Moon 5:10 PM CST (11/12) 6:45 AM CST (11/12)
Length of Visible Light 10h 48m
Length of Day
9h 46m
Full, 100% of the Moon is Illuminated
Nov 12
Full
Nov 19
Last Quarter
Nov 26
New
Dec 4
First Quarter
Dec 11
Full

Hourly Weather History & Observations

Time (CST) Temp. Windchill Dew Point Humidity Pressure Visibility Wind Dir Wind Speed Gust Speed Precip Events Conditions
12:53 AM 10.0 °F -5.9 °F -2.0 °F 58% 30.63 in 10.0 mi NNW 13.8 mph - N/A   Clear
1:53 AM 10.0 °F -5.2 °F -2.9 °F 56% 30.63 in 10.0 mi NNW 12.7 mph - N/A   Clear
2:53 AM 9.0 °F -5.9 °F -2.9 °F 59% 30.63 in 10.0 mi NNW 11.5 mph - N/A   Clear
3:53 AM 9.0 °F -5.9 °F -2.9 °F 59% 30.63 in 10.0 mi NW 11.5 mph - N/A   Clear
4:53 AM 8.1 °F -3.2 °F -2.9 °F 61% 30.63 in 10.0 mi NNW 6.9 mph - N/A   Clear
5:53 AM 8.1 °F -6.2 °F -2.0 °F 64% 30.63 in 10.0 mi NNW 10.4 mph - N/A   Clear
6:53 AM 7.0 °F -5.7 °F -2.0 °F 67% 30.63 in 10.0 mi NNW 8.1 mph - N/A   Clear
7:53 AM 10.9 °F -0.8 °F -2.0 °F 56% 30.62 in 10.0 mi NW 8.1 mph - N/A   Clear
8:53 AM 12.9 °F 1.6 °F -0.9 °F 54% 30.63 in 10.0 mi NNW 8.1 mph - N/A   Clear
9:53 AM 14.0 °F 3.9 °F -0.9 °F 52% 30.62 in 10.0 mi NNW 6.9 mph - N/A   Clear
10:53 AM 16.0 °F 7.4 °F -0.9 °F 47% 30.61 in 10.0 mi NNW 5.8 mph - N/A   Clear
11:53 AM 16.0 °F - -0.9 °F 47% 30.57 in 10.0 mi Calm Calm - N/A   Clear
12:53 PM 18.0 °F 8.7 °F -0.9 °F 44% 30.53 in 10.0 mi SSE 6.9 mph - N/A   Clear
1:53 PM 19.9 °F 9.3 °F -2.0 °F 38% 30.50 in 10.0 mi South 9.2 mph - N/A   Clear
2:53 PM 19.0 °F 9.0 °F -2.0 °F 40% 30.47 in 10.0 mi SW 8.1 mph - N/A   Clear
3:53 PM 19.0 °F 8.2 °F -2.0 °F 40% 30.44 in 10.0 mi SSW 9.2 mph - N/A   Clear
4:53 PM 19.0 °F 9.0 °F -0.0 °F 43% 30.40 in 10.0 mi South 8.1 mph - N/A   Clear
5:53 PM 19.0 °F 4.5 °F 1.0 °F 46% 30.37 in 10.0 mi South 16.1 mph - N/A   Clear
6:53 PM 19.0 °F 5.6 °F 3.9 °F 52% 30.34 in 10.0 mi South 13.8 mph - N/A   Clear
7:53 PM 17.1 °F 2.0 °F 1.0 °F 50% 30.33 in 10.0 mi South 16.1 mph 21.9 mph N/A   Clear
8:53 PM 16.0 °F 0.6 °F -0.9 °F 47% 30.33 in 10.0 mi SSW 16.1 mph - N/A   Clear
9:53 PM 17.1 °F 3.0 °F -0.0 °F 47% 30.31 in 10.0 mi South 13.8 mph 23.0 mph N/A   Clear
10:53 PM 17.1 °F 1.0 °F 1.9 °F 52% 30.27 in 10.0 mi South 18.4 mph - N/A   Clear
11:53 PM 18.0 °F 1.7 °F 3.0 °F 52% 30.25 in 10.0 mi South 19.6 mph 31.1 mph N/A   Partly Cloudy